Date String (YYYY-MM-DD hh:mm:ss) UTC,Instrument flags,Ambient pressure (hPa),Sample flow (lpm),Bypass flow (lpm),Sample temperature (°C),Ambient temperature (°C),ASC tube jacket temperature (°C),LED temperature (°C),Box temperature (°C),Sample RH (%),Span deviation,Mass concentration (μg/m³),Mass concentration (μg/m³),Mass concentration (μg/m³)
DateTimeUTC,F1_M11,P_M11,Q1_M11,Q2_M11,T1_M11,T2_M11,T3_M11,T4_M11,T5_M11,U1_M11,ZSPAN_M11,X0_M11,X2_M11,X1_M11
2021-12-20 19:00:00,,0826.0,5.01,0.00,25.2,24.4,00.0,34.1,26.9,07.8,0000.0,0000.58,0000.32,0000.22
2021-12-20 19:01:00,,0826.0,5.00,0.00,25.2,24.4,00.0,34.1,26.9,07.8,0000.0,0000.53,0000.30,0000.21
2021-12-20 19:02:00,,0825.9,4.99,0.00,25.2,24.4,00.0,34.1,26.9,07.8,0000.0,0000.53,0000.30,0000.21
2021-12-20 19:03:00,,0826.0,5.00,0.00,25.2,24.5,00.0,34.1,27.0,07.8,0000.0,0000.52,0000.29,0000.21
2021-12-20 19:04:00,,0825.9,5.01,0.00,25.2,24.5,00.0,34.1,27.0,07.8,0000.0,0000.55,0000.31,0000.22
2021-12-20 19:05:00,,0825.9,4.98,0.00,25.2,24.4,00.0,34.2,26.9,07.8,0000.0,0000.54,0000.31,0000.21
2021-12-20 19:06:00,,0826.0,5.01,0.00,25.3,24.5,00.0,34.2,27.0,07.8,0000.0,0000.48,0000.31,0000.22
2021-12-20 19:07:00,,0826.0,4.99,0.00,25.3,24.5,00.0,34.2,27.0,07.9,0000.0,0000.44,0000.31,0000.22
2021-12-20 19:08:00,,0825.9,5.01,0.00,25.3,24.5,00.0,34.2,27.0,07.9,0000.0,0000.39,0000.29,0000.21
2021-12-20 19:09:00,,0825.9,4.99,0.00,25.3,24.5,00.0,34.2,27.0,07.9,0000.0,0000.35,0000.27,0000.21
2021-12-20 19:10:00,,0825.8,5.01,0.00,25.3,24.6,00.0,34.2,27.0,07.8,0000.0,0000.34,0000.26,0000.21
2021-12-20 19:11:00,,0825.8,4.99,0.00,25.3,24.6,00.0,34.2,27.0,07.9,0000.0,0000.33,0000.25,0000.21
2021-12-20 19:12:00,,0825.9,5.01,0.00,25.3,24.6,00.0,34.2,27.0,07.8,0000.0,0000.34,0000.26,0000.21
2021-12-20 19:13:00,,0825.9,5.01,0.00,25.3,24.6,00.0,34.2,27.0,07.9,0000.0,0000.34,0000.25,0000.21
2021-12-20 19:14:00,,0826.0,5.00,0.00,25.3,24.6,00.0,34.2,27.1,07.8,0000.0,0000.34,0000.25,0000.21
2021-12-20 19:15:00,,0825.9,5.02,0.00,25.3,24.6,00.0,34.2,27.0,07.8,0000.0,0000.30,0000.24,0000.21
2021-12-20 19:16:00,,0826.1,5.00,0.00,25.3,24.6,00.0,34.2,27.1,07.9,0000.0,0000.31,0000.24,0000.21
2021-12-20 19:17:00,,0825.7,4.99,0.00,25.3,24.6,00.0,34.2,27.1,07.9,0000.0,0000.33,0000.26,0000.21
2021-12-20 19:18:00,,0825.7,5.00,0.00,25.4,24.6,00.0,34.3,27.1,07.9,0000.0,0000.33,0000.26,0000.21
2021-12-20 19:19:00,,0825.7,5.00,0.00,25.4,24.6,00.0,34.3,27.1,07.9,0000.0,0000.38,0000.28,0000.21
2021-12-20 19:20:00,,0825.6,4.99,0.00,25.4,24.6,00.0,34.3,27.1,07.9,0000.0,0000.42,0000.28,0000.22
2021-12-20 19:21:00,,0825.7,5.00,0.00,25.4,24.6,00.0,34.3,27.1,07.9,0000.0,0000.41,0000.29,0000.21
2021-12-20 19:22:00,,0825.7,5.01,0.00,25.4,24.6,00.0,34.3,27.2,07.9,0000.0,0000.40,0000.28,0000.21
2021-12-20 19:23:00,,0825.7,4.99,0.00,25.4,24.6,00.0,34.3,27.2,08.0,0000.0,0000.37,0000.27,0000.21
2021-12-20 19:24:00,,0825.6,5.02,0.00,25.4,24.6,00.0,34.3,27.2,07.9,0000.0,0000.37,0000.27,0000.20
2021-12-20 19:25:00,,0825.7,4.99,0.00,25.4,24.7,00.0,34.3,27.2,07.9,0000.0,0000.57,0000.27,0000.20
2021-12-20 19:26:00,,0825.7,4.99,0.00,25.4,24.7,00.0,34.3,27.2,08.0,0000.0,0001.19,0000.29,0000.20
2021-12-20 19:27:00,,0825.6,5.00,0.00,25.4,24.7,00.0,34.4,27.2,08.0,0000.0,0001.18,0000.28,0000.20
2021-12-20 19:28:00,,0825.5,5.00,0.00,25.4,24.7,00.0,34.4,27.2,08.1,0000.0,0001.15,0000.26,0000.19
2021-12-20 19:29:00,,0825.5,5.00,0.00,25.5,24.7,00.0,34.4,27.2,08.1,0000.0,0001.17,0000.25,0000.19
2021-12-20 19:30:00,,0825.5,5.01,0.00,25.5,24.7,00.0,34.4,27.2,08.1,0000.0,0001.28,0000.26,0000.18
2021-12-20 19:31:00,,0825.6,4.99,0.00,25.5,24.7,00.0,34.4,27.2,08.2,0000.0,0001.26,0000.24,0000.18
2021-12-20 19:32:00,,0825.6,5.00,0.00,25.5,24.6,00.0,34.4,27.2,08.2,0000.0,0001.28,0000.24,0000.17
2021-12-20 19:33:00,,0825.5,5.02,0.00,25.5,24.6,00.0,34.4,27.2,08.3,0000.0,0001.36,0000.23,0000.17
2021-12-20 19:34:00,,0825.5,4.99,0.00,25.5,24.7,00.0,34.4,27.2,08.3,0000.0,0001.42,0000.25,0000.17
2021-12-20 19:35:00,,0825.5,5.01,0.00,25.5,24.7,00.0,34.4,27.2,08.3,0000.0,0001.42,0000.25,0000.17
2021-12-20 19:36:00,,0825.5,4.99,0.00,25.5,24.7,00.0,34.4,27.2,08.3,0000.0,0001.41,0000.25,0000.17
2021-12-20 19:37:00,,0825.5,5.01,0.00,25.5,24.7,00.0,34.4,27.2,08.3,0000.0,0000.72,0000.24,0000.16
2021-12-20 19:38:00,,0825.5,4.99,0.00,25.5,24.7,00.0,34.4,27.3,08.3,0000.0,0000.79,0000.25,0000.16
2021-12-20 19:39:00,,0825.4,5.01,0.00,25.5,24.7,00.0,34.4,27.3,08.3,0000.0,0000.82,0000.27,0000.16
2021-12-20 19:40:00,,0825.4,5.00,0.00,25.6,24.8,00.0,34.4,27.3,08.4,0000.0,0000.80,0000.27,0000.16
2021-12-20 19:41:00,,0825.4,4.99,0.00,25.6,24.8,00.0,34.5,27.3,08.4,0000.0,0000.67,0000.26,0000.16
2021-12-20 19:42:00,,0825.5,5.01,0.00,25.6,24.8,00.0,34.5,27.4,08.5,0000.0,0000.63,0000.25,0000.16
2021-12-20 19:43:00,,0825.5,5.00,0.00,25.6,24.8,00.0,34.5,27.4,08.4,0000.0,0000.59,0000.25,0000.16
2021-12-20 19:44:00,,0825.5,4.99,0.00,25.6,24.8,00.0,34.5,27.4,08.4,0000.0,0000.50,0000.24,0000.16
2021-12-20 19:45:00,,0825.5,5.00,0.00,25.6,24.8,00.0,34.5,27.4,08.3,0000.0,0000.44,0000.22,0000.16
2021-12-20 19:46:00,,0825.4,5.00,0.00,25.6,24.8,00.0,34.5,27.4,08.4,0000.0,0000.42,0000.21,0000.16
2021-12-20 19:47:00,,0825.4,5.01,0.00,25.7,24.8,00.0,34.5,27.5,08.4,0000.0,0000.42,0000.21,0000.16
2021-12-20 19:48:00,,0825.5,4.99,0.00,25.7,24.8,00.0,34.5,27.5,08.4,0000.0,0000.37,0000.21,0000.16
2021-12-20 19:49:00,,0825.5,4.99,0.00,25.7,24.9,00.0,34.6,27.5,08.3,0000.0,0000.31,0000.20,0000.16
2021-12-20 19:50:00,,0825.5,5.02,0.00,25.7,24.9,00.0,34.6,27.5,08.3,0000.0,0000.30,0000.19,0000.16
2021-12-20 19:51:00,,0825.5,4.98,0.00,25.7,24.9,00.0,34.6,27.5,08.3,0000.0,0000.29,0000.19,0000.16
2021-12-20 19:52:00,,0825.5,5.01,0.00,25.7,25.0,00.0,34.6,27.5,08.3,0000.0,0000.29,0000.19,0000.16
2021-12-20 19:53:00,,0825.4,4.99,0.00,25.8,25.0,00.0,34.6,27.6,08.2,0000.0,0000.30,0000.20,0000.16
2021-12-20 19:54:00,,0825.5,5.01,0.00,25.8,25.0,00.0,34.6,27.6,08.2,0000.0,0000.30,0000.20,0000.16
2021-12-20 19:55:00,,0825.5,5.00,0.00,25.8,25.0,00.0,34.7,27.6,08.2,0000.0,0000.33,0000.21,0000.16
2021-12-20 19:56:00,,0825.4,5.01,0.00,25.8,25.0,00.0,34.7,27.6,08.3,0000.0,0000.37,0000.23,0000.17
2021-12-20 19:57:00,,0825.5,4.99,0.00,25.8,25.0,00.0,34.7,27.6,08.3,0000.0,0000.38,0000.23,0000.17
2021-12-20 19:58:00,,0825.4,5.00,0.00,25.8,25.0,00.0,34.7,27.6,08.4,0000.0,0000.37,0000.23,0000.17
2021-12-20 19:59:00,,0825.4,4.99,0.00,25.8,25.0,00.0,34.7,27.6,08.3,0000.0,0000.37,0000.22,0000.16
